TimeCST,TemperatureF,Dew PointF,Humidity,Sea Level PressureIn,VisibilityMPH,Wind Direction,Wind SpeedMPH,Gust SpeedMPH,PrecipitationIn,Events,Conditions,WindDirDegrees,DateUTC
12:55 AM,-15.0,-22.0,71,30.13,10.0,Calm,Calm,-,N/A,,Clear,0,2013-12-26 06:55:00
1:55 AM,-20.0,-26.0,74,30.14,10.0,Calm,Calm,-,N/A,,Partly Cloudy,0,2013-12-26 07:55:00
2:55 AM,-18.9,-25.1,74,30.14,10.0,Calm,Calm,-,N/A,,Clear,0,2013-12-26 08:55:00
3:55 AM,-24.0,-29.0,77,30.15,10.0,Calm,Calm,-,N/A,,Clear,0,2013-12-26 09:55:00
4:53 AM,-22.0,-27.4,76,30.03,10.0,Calm,Calm,-,N/A,,Mostly Cloudy,0,2013-12-26 10:53:00
4:55 AM,-20.9,-27.0,73,30.15,10.0,Calm,Calm,-,N/A,,Mostly Cloudy,0,2013-12-26 10:55:00
5:55 AM,-17.0,-24.0,70,30.16,10.0,Calm,Calm,-,N/A,,Overcast,0,2013-12-26 11:55:00
6:55 AM,-16.1,-23.1,71,30.18,10.0,Calm,Calm,-,N/A,,Overcast,0,2013-12-26 12:55:00
7:55 AM,-13.0,-18.9,75,30.17,10.0,Calm,Calm,-,N/A,,Overcast,0,2013-12-26 13:55:00
8:55 AM,-13.0,-18.9,75,30.18,10.0,Calm,Calm,-,N/A,,Overcast,0,2013-12-26 14:55:00
9:55 AM,-8.0,-11.9,83,30.19,10.0,Calm,Calm,-,N/A,,Overcast,0,2013-12-26 15:55:00
10:48 AM,-2.2,-7.6,78,30.08,10.0,Calm,Calm,-,N/A,,Scattered Clouds,0,2013-12-26 16:48:00
10:55 AM,-2.0,-6.0,83,30.20,10.0,Calm,Calm,-,N/A,,Partly Cloudy,0,2013-12-26 16:55:00
11:38 AM,1.4,-4.0,78,30.07,10.0,SW,5.8,-,N/A,,Mostly Cloudy,220,2013-12-26 17:38:00
11:55 AM,3.9,-2.9,73,30.19,10.0,SSW,3.5,-,N/A,,Overcast,210,2013-12-26 17:55:00
12:19 PM,3.2,-4.0,72,30.07,10.0,SSW,4.6,-,N/A,,Scattered Clouds,210,2013-12-26 18:19:00
12:55 PM,3.9,-4.0,70,30.19,10.0,SW,3.5,-,N/A,,Clear,230,2013-12-26 18:55:00
1:55 PM,6.1,-4.0,63,30.18,10.0,Calm,Calm,-,N/A,,Clear,0,2013-12-26 19:55:00
2:55 PM,6.1,-4.0,63,30.20,10.0,WNW,5.8,-,N/A,,Clear,300,2013-12-26 20:55:00
3:55 PM,5.0,-4.0,66,30.20,10.0,Calm,Calm,-,N/A,,Clear,0,2013-12-26 21:55:00
4:55 PM,-2.9,-8.0,79,30.21,10.0,Calm,Calm,-,N/A,,Clear,0,2013-12-26 22:55:00
5:55 PM,-9.9,-11.9,91,30.22,10.0,Calm,Calm,-,N/A,,Clear,0,2013-12-26 23:55:00
6:55 PM,-8.0,-13.0,79,30.22,10.0,SE,3.5,-,N/A,,Clear,140,2013-12-27 00:55:00
7:55 PM,-15.0,-20.0,78,30.22,10.0,Calm,Calm,-,N/A,,Clear,0,2013-12-27 01:55:00
8:55 PM,-11.0,-16.1,78,30.21,10.0,Calm,Calm,-,N/A,,Mostly Cloudy,0,2013-12-27 02:55:00
9:55 PM,1.0,-4.0,79,30.18,10.0,Calm,Calm,-,N/A,,Overcast,0,2013-12-27 03:55:00
10:55 PM,3.9,-0.9,80,30.15,10.0,Variable,4.6,-,N/A,,Overcast,0,2013-12-27 04:55:00
11:55 PM,6.1,-0.0,76,30.11,10.0,Calm,Calm,-,N/A,,Overcast,0,2013-12-27 05:55:00